EN

Hourly Weather Laczonek

Today, 30 July, Friday

Time Temperature Precipitation Wind Pressure Humidity
00:00 +17°C° 0 mm 3 mps 746 mmHg 73%
01:00 +17°C° 0 mm 2 mps 746 mmHg 77%
02:00 +16°C° 0 mm 2 mps 746 mmHg 76%
03:00 +16°C° 0 mm 2 mps 746 mmHg 75%
04:00 +16°C° 0 mm 2 mps 746 mmHg 74%
05:00 +17°C° 0 mm 3 mps 746 mmHg 68%
06:00 +19°C° 0 mm 3 mps 746 mmHg 62%
07:00 +20°C° 0 mm 4 mps 746 mmHg 58%
08:00 +21°C° 0 mm 5 mps 746 mmHg 54%
09:00 +22°C° 0 mm 6 mps 746 mmHg 49%
10:00 +23°C° 0 mm 7 mps 746 mmHg 45%
11:00 +24°C° 0 mm 7 mps 745 mmHg 43%
12:00 +24°C° 0 mm 7 mps 745 mmHg 41%
13:00 +26°C° 0 mm 7 mps 745 mmHg 39%
14:00 +24°C° 0 mm 6 mps 745 mmHg 42%
15:00 +24°C° 0 mm 6 mps 745 mmHg 45%
16:00 +25°C° 0 mm 5 mps 744 mmHg 48%
17:00 +23°C° 0 mm 4 mps 744 mmHg 52%
18:00 +22°C° 0 mm 4 mps 744 mmHg 56%
19:00 +21°C° 0 mm 3 mps 744 mmHg 60%
20:00 +20°C° 0 mm 3 mps 744 mmHg 61%
21:00 +19°C° 0 mm 3 mps 744 mmHg 62%
22:00 +18°C° 0 mm 2 mps 745 mmHg 63%
23:00 +17°C° 0 mm 2 mps 745 mmHg 63%

Tomorrow, 31 July, Saturday

Time Temperature Precipitation Wind Pressure Humidity
00:00 +17°C° 0 mm 2 mps 745 mmHg 63%
01:00 +17°C° 0 mm 2 mps 744 mmHg 63%
02:00 +16°C° 0 mm 2 mps 744 mmHg 64%
03:00 +16°C° 0 mm 2 mps 744 mmHg 66%
04:00 +16°C° 0 mm 3 mps 744 mmHg 67%
05:00 +18°C° 0 mm 3 mps 744 mmHg 65%
06:00 +19°C° 0 mm 3 mps 744 mmHg 63%
07:00 +20°C° 0 mm 3 mps 744 mmHg 61%
08:00 +22°C° 0 mm 4 mps 744 mmHg 57%
09:00 +25°C° 0 mm 4 mps 744 mmHg 53%
10:00 +27°C° 0 mm 5 mps 744 mmHg 48%
11:00 +27°C° 0 mm 5 mps 743 mmHg 49%
12:00 +27°C° 0 mm 6 mps 743 mmHg 50%
13:00 +27°C° 0 mm 6 mps 743 mmHg 50%
14:00 +27°C° 0 mm 6 mps 743 mmHg 47%
15:00 +27°C° 0 mm 6 mps 743 mmHg 44%
16:00 +27°C° 0 mm 6 mps 743 mmHg 42%
17:00 +26°C° 0 mm 6 mps 743 mmHg 46%
18:00 +23°C° 0 mm 5 mps 743 mmHg 50%
19:00 +22°C° 0 mm 4 mps 743 mmHg 55%
20:00 +21°C° 0 mm 4 mps 744 mmHg 56%
21:00 +20°C° 0 mm 4 mps 744 mmHg 57%
22:00 +18°C° 0 mm 4 mps 744 mmHg 58%
23:00 +18°C° 0 mm 3 mps 744 mmHg 61%

Day after tomorrow, 1 August, Sunday

Time Temperature Precipitation Wind Pressure Humidity
00:00 +17°C° 0 mm 3 mps 745 mmHg 65%
01:00 +16°C° 0 mm 3 mps 745 mmHg 68%
02:00 +14°C° 0 mm 3 mps 745 mmHg 70%
03:00 +14°C° 0 mm 3 mps 745 mmHg 72%
04:00 +14°C° 0 mm 3 mps 745 mmHg 74%
05:00 +16°C° 0 mm 3 mps 745 mmHg 72%
06:00 +17°C° 0 mm 4 mps 745 mmHg 70%
07:00 +18°C° 0 mm 4 mps 745 mmHg 67%
08:00 +19°C° 0 mm 4 mps 745 mmHg 63%
09:00 +21°C° 0 mm 4 mps 745 mmHg 59%
10:00 +22°C° 0 mm 4 mps 745 mmHg 55%
11:00 +21°C° 0.1 mm 4 mps 745 mmHg 58%
12:00 +21°C° 0.1 mm 5 mps 746 mmHg 61%
13:00 +20°C° 0.1 mm 5 mps 746 mmHg 64%
14:00 +20°C° 0.2 mm 4 mps 746 mmHg 66%
15:00 +20°C° 0.2 mm 4 mps 746 mmHg 69%
16:00 +19°C° 0.2 mm 3 mps 746 mmHg 71%
17:00 +19°C° 0 mm 3 mps 745 mmHg 73%
18:00 +19°C° 0 mm 3 mps 745 mmHg 75%
19:00 +18°C° 0 mm 2 mps 745 mmHg 77%
20:00 +17°C° 0 mm 2 mps 745 mmHg 80%
21:00 +16°C° 0 mm 2 mps 745 mmHg 84%
22:00 +16°C° 0 mm 2 mps 745 mmHg 87%
23:00 +16°C° 0 mm 2 mps 745 mmHg 86%

2 August, Monday

Time Temperature Precipitation Wind Pressure Humidity
00:00 +16°C° 0 mm 2 mps 744 mmHg 85%
01:00 +16°C° 0 mm 2 mps 744 mmHg 84%
02:00 +16°C° 0 mm 2 mps 744 mmHg 84%
03:00 +16°C° 0 mm 2 mps 744 mmHg 85%
04:00 +15°C° 0 mm 2 mps 744 mmHg 85%
05:00 +16°C° 0 mm 2 mps 744 mmHg 81%
06:00 +17°C° 0 mm 3 mps 744 mmHg 77%
07:00 +18°C° 0 mm 3 mps 745 mmHg 73%
08:00 +19°C° 0 mm 3 mps 745 mmHg 68%
09:00 +20°C° 0 mm 4 mps 745 mmHg 62%
10:00 +22°C° 0 mm 4 mps 745 mmHg 57%
11:00 +22°C° 0.1 mm 5 mps 745 mmHg 55%
12:00 +23°C° 0.1 mm 5 mps 745 mmHg 54%
13:00 +23°C° 0.1 mm 6 mps 745 mmHg 52%
14:00 +22°C° 0.3 mm 5 mps 745 mmHg 55%
15:00 +22°C° 0.3 mm 5 mps 746 mmHg 59%
16:00 +22°C° 0.3 mm 5 mps 746 mmHg 62%
17:00 +20°C° 0.4 mm 4 mps 746 mmHg 66%
18:00 +19°C° 0.4 mm 3 mps 746 mmHg 71%
19:00 +18°C° 0.4 mm 3 mps 746 mmHg 76%
20:00 +17°C° 0 mm 2 mps 747 mmHg 76%
21:00 +16°C° 0 mm 2 mps 747 mmHg 77%
22:00 +16°C° 0 mm 2 mps 747 mmHg 77%
23:00 +15°C° 0 mm 2 mps 748 mmHg 78%

3 August, Tuesday

Time Temperature Precipitation Wind Pressure Humidity
00:00 +13°C° 0 mm 3 mps 748 mmHg 79%
01:00 +13°C° 0 mm 3 mps 748 mmHg 80%
02:00 +12°C° 0 mm 3 mps 748 mmHg 81%
03:00 +12°C° 0 mm 3 mps 748 mmHg 82%
04:00 +11°C° 0 mm 3 mps 749 mmHg 83%
05:00 +13°C° 0 mm 3 mps 749 mmHg 80%
06:00 +14°C° 0 mm 4 mps 749 mmHg 76%
07:00 +17°C° 0 mm 4 mps 749 mmHg 72%
08:00 +18°C° 0 mm 4 mps 749 mmHg 65%
09:00 +20°C° 0 mm 5 mps 750 mmHg 58%
10:00 +21°C° 0 mm 5 mps 750 mmHg 51%
11:00 +22°C° 0 mm 5 mps 750 mmHg 47%
12:00 +23°C° 0 mm 4 mps 749 mmHg 44%
13:00 +23°C° 0 mm 4 mps 749 mmHg 40%
14:00 +25°C° 0 mm 4 mps 749 mmHg 39%
15:00 +25°C° 0 mm 4 mps 749 mmHg 37%
16:00 +25°C° 0 mm 4 mps 749 mmHg 36%
17:00 +24°C° 0 mm 3 mps 749 mmHg 43%
18:00 +22°C° 0 mm 3 mps 749 mmHg 50%
19:00 +20°C° 0 mm 3 mps 749 mmHg 57%
20:00 +19°C° 0 mm 2 mps 749 mmHg 59%
21:00 +19°C° 0 mm 2 mps 749 mmHg 61%
22:00 +19°C° 0 mm 1 mps 749 mmHg 63%
23:00 +18°C° 0 mm 2 mps 749 mmHg 62%

4 August, Wednesday

Time Temperature Precipitation Wind Pressure Humidity
00:00 +18°C° 0 mm 2 mps 748 mmHg 61%
01:00 +18°C° 0 mm 2 mps 748 mmHg 60%
02:00 +18°C° 0.1 mm 2 mps 748 mmHg 63%
03:00 +17°C° 0.1 mm 2 mps 748 mmHg 67%
04:00 +18°C° 0.1 mm 1 mps 748 mmHg 70%
05:00 +18°C° 1 mm 1 mps 748 mmHg 77%
06:00 +16°C° 1 mm 2 mps 748 mmHg 83%
07:00 +16°C° 1 mm 2 mps 747 mmHg 90%
08:00 +16°C° 1.4 mm 2 mps 747 mmHg 90%
09:00 +16°C° 1.4 mm 2 mps 747 mmHg 91%
10:00 +16°C° 1.4 mm 3 mps 747 mmHg 92%
11:00 +17°C° 0.3 mm 3 mps 747 mmHg 85%
12:00 +19°C° 0.3 mm 2 mps 747 mmHg 79%
13:00 +20°C° 0.3 mm 2 mps 747 mmHg 72%
14:00 +21°C° 0.2 mm 2 mps 747 mmHg 69%
15:00 +21°C° 0.2 mm 2 mps 746 mmHg 67%
16:00 +22°C° 0.2 mm 1 mps 746 mmHg 64%
17:00 +22°C° 0.1 mm 1 mps 746 mmHg 69%
18:00 +21°C° 0.1 mm 1 mps 746 mmHg 73%
19:00 +20°C° 0.1 mm 1 mps 746 mmHg 77%
20:00 +19°C° 0 mm 1 mps 746 mmHg 80%
21:00 +19°C° 0 mm 1 mps 746 mmHg 82%
22:00 +18°C° 0 mm 1 mps 746 mmHg 85%
23:00 +18°C° 0 mm 1 mps 746 mmHg 87%
Show more